Regional Weather Roundup
Issued by NWS

Home | Current Version | Previous Version | Graphics & Text | Print | Product List | Glossary On
Versions: 1 2 3 4 5 6 7 8 9 10 11 12 13 14 15 16 17 18 19 20 21 22 23 24 25 26 27 28 29 30 31 32 33 34 35 36 37 38 39 40 41 42 43 44 45 46 47 48 49 50
000
ASUS43 KFSD 100410
RWRSD

WEATHER ROUNDUP FOR SOUTH DAKOTA
NATIONAL WEATHER SERVICE SIOUX FALLS SD
1100 PM CDT WED JUL 09 2014

NOTE: "FAIR" INDICATES FEW OR NO CLOUDS BELOW 12,000 FEET WITH NO
SIGNIFICANT WEATHER AND/OR OBSTRUCTIONS TO VISIBILITY.


SDZ001>005-009-010-012>017-100500-
NORTHWEST AND NORTH CENTRAL SOUTH DAKOTA

CITY           SKY/WX    TMP DP  RH WIND       PRES   REMARKS
BUFFALO          N/A     64  56  75 SE12      29.90R
FAITH            N/A     66  56  70 SE12      29.97R
MOBRIDGE       CLEAR     67  59  75 SE9       29.95R
$$

SDZ012>016-024>037-041>051-057-063-072>074-100500-
SOUTHWEST AND SOUTH CENTRAL SOUTH DAKOTA

CITY           SKY/WX    TMP DP  RH WIND       PRES   REMARKS
RAPID CTY ARPT CLEAR     63  55  75 E9        29.98R
PIERRE         CLEAR     64  58  80 SE8       29.95R HAZE
CUSTER         PTCLDY    60  55  83 E8        30.09S
ELLSWORTH AFB  PTCLDY    65  56  72 SE10      29.98R
PHILIP         CLEAR     61  56  83 E7        29.96R
PINE RIDGE     CLEAR     65  59  81 E9        29.98R
WINNER         MOCLDY    65  59  81 S6        29.99R
$$

SDZ004>011-016>023-039-040-100500-
NORTHEAST SOUTH DAKOTA

CITY           SKY/WX    TMP DP  RH WIND       PRES   REMARKS
ABERDEEN       CLEAR     64  56  75 E6        29.99R
WATERTOWN      CLEAR     65  55  70 E5        30.01S
SISSETON         N/A     63  58  83 SW6       29.99R
$$

SDZ017-020-022-023-036>040-048>070-100500-
SOUTHEAST SOUTH DAKOTA

CITY           SKY/WX    TMP DP  RH WIND       PRES   REMARKS
SIOUX FALLS    PTCLDY    69  59  70 SE7       30.00R
HURON          CLEAR     68  58  70 E7        29.97R
CHAMBERLAIN    CLEAR     61  55  81 S8        29.98S
MITCHELL       CLEAR     67  60  78 SE3       29.98R
YANKTON        CLEAR     66  61  82 SE5       30.00S
$$

ABBREVIATIONS USED IN REMARKS
   TC - TEMPERATURE IN CELSIUS
  WCI - WIND CHILL INDEX
   HX - HEAT INDEX
  VSB - VISIBILITY




USA.gov is the U.S. government's official web portal to all federal, state and local government web resources and services.